Time,TemperatureF,DewpointF,PressureIn,WindDirection,WindDirectionDegrees,WindSpeedMPH,WindSpeedGustMPH,Humidity,HourlyPrecipIn,Conditions,Clouds,dailyrainin,SoftwareType,DateUTC
2013-01-10 15:31:00,41.8,31.3,30.19,ESE,111,5.0,5.0,66,0.00,,,0.00,Wunderground v.1.15,2013-01-10 21:31:00,
2013-01-10 15:37:00,41.8,31.3,30.19,East,79,5.0,6.0,66,0.00,,,0.00,Wunderground v.1.15,2013-01-10 21:37:00,
2013-01-10 15:42:00,41.7,31.2,30.19,East,94,4.0,6.0,66,0.00,,,0.00,Wunderground v.1.15,2013-01-10 21:42:00,
2013-01-10 15:48:00,41.7,31.5,30.19,East,82,4.0,6.0,67,0.00,,,0.00,Wunderground v.1.15,2013-01-10 21:48:00,
2013-01-10 15:53:00,41.1,33.1,30.18,East,85,4.0,6.0,73,0.00,,,0.00,Wunderground v.1.15,2013-01-10 21:53:00,
2013-01-10 15:58:00,40.5,33.2,30.18,ENE,73,4.0,5.0,75,0.00,,,0.00,Wunderground v.1.15,2013-01-10 21:58:00,
2013-01-10 16:03:00,40.1,33.1,30.18,East,81,4.0,4.0,76,0.00,,,0.00,Wunderground v.1.15,2013-01-10 22:03:00,
2013-01-10 16:08:00,40.1,33.1,30.18,East,89,4.0,4.0,76,0.00,,,0.00,Wunderground v.1.15,2013-01-10 22:08:00,
2013-01-10 16:13:00,40.1,33.1,30.18,ESE,107,3.0,6.0,76,0.00,,,0.00,Wunderground v.1.15,2013-01-10 22:13:00,
2013-01-10 16:19:00,39.8,33.8,30.18,ESE,103,4.0,7.0,79,0.00,,,0.01,Wunderground v.1.15,2013-01-10 22:19:00,
2013-01-10 16:24:00,39.3,34.3,30.18,East,89,4.0,6.0,82,0.22,,,0.03,Wunderground v.1.15,2013-01-10 22:24:00,
2013-01-10 16:29:00,38.6,34.5,30.16,East,94,4.0,6.0,85,0.18,,,0.04,Wunderground v.1.15,2013-01-10 22:29:00,
2013-01-10 16:34:00,38.2,34.7,30.14,ENE,75,5.0,6.0,87,0.15,,,0.05,Wunderground v.1.15,2013-01-10 22:34:00,
2013-01-10 16:39:00,38.1,34.6,30.14,East,82,7.0,11.0,87,0.07,,,0.05,Wunderground v.1.15,2013-01-10 22:39:00,
2013-01-10 16:45:00,38.0,34.5,30.14,East,79,7.0,7.0,87,0.04,,,0.05,Wunderground v.1.15,2013-01-10 22:45:00,
2013-01-10 16:50:00,37.9,34.7,30.14,ENE,69,6.0,6.0,88,0.00,,,0.05,Wunderground v.1.15,2013-01-10 22:50:00,
2013-01-10 16:55:00,37.9,34.7,30.15,ENE,77,5.0,6.0,88,0.00,,,0.05,Wunderground v.1.15,2013-01-10 22:55:00,
2013-01-10 17:00:00,37.9,34.9,30.15,East,82,4.0,4.0,89,0.00,,,0.05,Wunderground v.1.15,2013-01-10 23:00:00,
2013-01-10 17:05:00,37.9,34.9,30.15,ESE,115,3.0,7.0,89,0.00,,,0.05,Wunderground v.1.15,2013-01-10 23:05:00,
2013-01-10 17:11:00,37.9,34.9,30.14,East,90,4.0,6.0,89,0.00,,,0.05,Wunderground v.1.15,2013-01-10 23:11:00,
2013-01-10 17:16:00,37.9,34.9,30.14,East,86,5.0,6.0,89,0.00,,,0.05,Wunderground v.1.15,2013-01-10 23:16:00,
2013-01-10 17:21:00,37.9,34.9,30.13,ENE,77,5.0,6.0,89,0.00,,,0.05,Wunderground v.1.15,2013-01-10 23:21:00,
2013-01-10 17:26:00,37.9,35.2,30.13,East,94,5.0,6.0,90,0.00,,,0.05,Wunderground v.1.15,2013-01-10 23:26:00,
2013-01-10 21:22:00,40.4,39.6,29.99,ESE,114,2.0,3.0,97,0.11,,,0.37,Wunderground v.1.15,2013-01-11 03:22:00,
2013-01-10 21:28:00,40.5,39.7,29.99,ENE,70,2.0,3.0,97,0.06,,,0.37,Wunderground v.1.15,2013-01-11 03:28:00,
2013-01-10 21:33:00,40.5,39.7,29.98,SSE,160,2.0,2.0,97,0.04,,,0.37,Wunderground v.1.15,2013-01-11 03:33:00,
2013-01-10 21:38:00,40.6,39.8,29.98,SE,127,3.0,4.0,97,0.00,,,0.37,Wunderground v.1.15,2013-01-11 03:38:00,
2013-01-10 21:43:00,40.5,39.7,29.98,SSE,159,3.0,3.0,97,0.00,,,0.37,Wunderground v.1.15,2013-01-11 03:43:00,
2013-01-10 21:49:00,40.6,39.8,29.98,ESE,112,3.0,5.0,97,0.00,,,0.37,Wunderground v.1.15,2013-01-11 03:49:00,
2013-01-10 21:54:00,40.7,39.9,29.97,SE,139,3.0,5.0,97,0.00,,,0.37,Wunderground v.1.15,2013-01-11 03:54:00,
2013-01-10 21:59:00,40.9,40.1,29.96,East,79,2.0,5.0,97,0.00,,,0.37,Wunderground v.1.15,2013-01-11 03:59:00,
2013-01-10 22:04:00,40.9,40.1,29.96,ESE,115,2.0,6.0,97,0.00,,,0.37,Wunderground v.1.15,2013-01-11 04:04:00,
2013-01-10 22:09:00,41.0,40.2,29.96,ESE,120,2.0,6.0,97,0.00,,,0.37,Wunderground v.1.15,2013-01-11 04:09:00,
2013-01-10 22:14:00,41.1,40.3,29.96,ESE,108,2.0,2.0,97,0.00,,,0.37,Wunderground v.1.15,2013-01-11 04:14:00,
2013-01-10 22:20:00,41.3,40.5,29.96,ESE,123,2.0,2.0,97,0.00,,,0.37,Wunderground v.1.15,2013-01-11 04:20:00,
2013-01-10 22:25:00,41.2,40.4,29.95,ESE,113,1.0,2.0,97,0.00,,,0.37,Wunderground v.1.15,2013-01-11 04:25:00,
2013-01-10 22:30:00,41.2,40.4,29.95,SE,138,1.0,3.0,97,0.00,,,0.37,Wunderground v.1.15,2013-01-11 04:30:00,
2013-01-10 22:35:00,41.4,40.6,29.95,SE,139,2.0,3.0,97,0.00,,,0.38,Wunderground v.1.15,2013-01-11 04:35:00,
2013-01-10 22:40:00,41.5,40.7,29.95,ESE,122,2.0,3.0,97,0.13,,,0.39,Wunderground v.1.15,2013-01-11 04:40:00,
2013-01-10 22:46:00,41.7,40.9,29.95,SSE,161,2.0,5.0,97,0.22,,,0.40,Wunderground v.1.15,2013-01-11 04:46:00,
2013-01-10 22:51:00,41.9,41.1,29.95,SSE,153,2.0,2.0,97,0.19,,,0.42,Wunderground v.1.15,2013-01-11 04:51:00,
2013-01-10 22:56:00,42.0,41.2,29.94,East,97,2.0,6.0,97,0.08,,,0.43,Wunderground v.1.15,2013-01-11 04:56:00,
2013-01-10 23:01:00,42.4,41.6,29.93,SSE,163,2.0,5.0,97,0.08,,,0.43,Wunderground v.1.15,2013-01-11 05:01:00,
2013-01-10 23:03:00,42.5,41.7,29.94,SSE,148,2.0,5.0,97,0.10,,,0.44,Wunderground v.1.15,2013-01-11 05:03:00,
2013-01-10 23:04:00,42.5,41.7,29.93,ESE,117,2.0,5.0,97,0.10,,,0.44,Wunderground v.1.15,2013-01-11 05:04:00,
2013-01-10 23:05:00,42.5,41.7,29.93,ESE,112,2.0,5.0,97,0.10,,,0.44,Wunderground v.1.15,2013-01-11 05:05:00,
2013-01-10 23:11:00,42.5,41.7,29.93,ESE,110,2.0,2.0,97,0.13,,,0.46,Wunderground v.1.15,2013-01-11 05:11:00,
2013-01-10 23:16:00,42.6,41.8,29.92,ESE,110,2.0,2.0,97,0.10,,,0.46,Wunderground v.1.15,2013-01-11 05:16:00,
2013-01-10 23:22:00,42.7,41.9,29.92,East,94,1.0,2.0,97,0.05,,,0.46,Wunderground v.1.15,2013-01-11 05:22:00,
2013-01-10 23:27:00,42.9,42.1,29.91,SE,139,1.0,2.0,97,0.04,,,0.47,Wunderground v.1.15,2013-01-11 05:27:00,
2013-01-10 23:32:00,43.2,42.4,29.91,SSE,152,1.0,2.0,97,0.04,,,0.47,Wunderground v.1.15,2013-01-11 05:32:00,
2013-01-10 23:37:00,43.5,42.7,29.91,East,88,1.0,2.0,97,0.04,,,0.47,Wunderground v.1.15,2013-01-11 05:37:00,
2013-01-10 23:42:00,43.7,43.2,29.90,East,85,2.0,3.0,98,0.04,,,0.48,Wunderground v.1.15,2013-01-11 05:42:00,
2013-01-10 23:48:00,43.7,42.9,29.89,East,79,2.0,3.0,97,0.04,,,0.48,Wunderground v.1.15,2013-01-11 05:48:00,
2013-01-10 23:53:00,43.9,43.1,29.89,ESE,113,2.0,3.0,97,0.04,,,0.48,Wunderground v.1.15,2013-01-11 05:53:00,
2013-01-10 23:58:00,44.0,43.2,29.88,ESE,105,2.0,3.0,97,0.00,,,0.48,Wunderground v.1.15,2013-01-11 05:58:00,